Weather History for Cocoa Beach, FL

Change the Weather History Date:

Wednesday, March 6, 2013

  Actual Average Record
Temperature  
Mean Temperature 62 °F -  
Max Temperature 71 °F 72 °F 87 °F (2003)
Min Temperature 51 °F 59 °F 50 °F (2001)
Degree Days  
Heating Degree Days 3    
Growing Degree Days 12 (Base 50)    
Moisture  
Dew Point 43 °F    
Average Humidity 56    
Maximum Humidity 88    
Minimum Humidity 19    
Precipitation  
Precipitation 0.00 in - - ()
Sea Level Pressure  
Sea Level Pressure 30.02 in    
Wind  
Wind Speed 16 mph (West)    
Max Wind Speed 24 mph    
Max Gust Speed 31 mph    
Visibility 10 miles    
Events      
Averages and records for this station are not official NWS values.
T = Trace of Precipitation, MM = Missing Value Source: NWS Daily Summary

Daily Weather History Graph

Daily Weather History Graph

Search for Another Location

Airport:

Trip Planner

Search our weather history database for the weather conditions in past years. The results will help you decide how hot, cold, wet, or windy it might be!

Date:

Astronomy

Mar. 06, 2013 Rise Set
Actual Time 6:41 AM EST 6:25 PM EST
Civil Twilight 6:18 AM EST 6:49 PM EST
Nautical Twilight 5:50 AM EST 7:16 PM EST
Astronomical Twilight 5:23 AM EST 7:43 PM EST
Moon 2:28 AM EST (3/6) 1:26 PM EST (3/6)
Length of Visible Light 12h 31m
Length of Day
11h 44m
Waning Crescent, 30% of the Moon is Illuminated
Mar 6
Waning Crescent
Mar 11
New
Mar 19
First Quarter
Mar 27
Full
Apr 3
Last Quarter

Hourly Weather History & Observations

Time (EST) Temp. Dew Point Humidity Pressure Visibility Wind Dir Wind Speed Gust Speed Precip Events Conditions
12:55 AM 61.3 °F 54.5 °F 78% 30.03 in 10.0 mi SW 13.8 mph - N/A   Mostly Cloudy
1:55 AM 61.9 °F 56.1 °F 81% 30.00 in 10.0 mi WSW 13.8 mph - N/A   Mostly Cloudy
2:55 AM 62.2 °F 57.0 °F 83% 29.98 in 10.0 mi SW 15.0 mph - N/A   Overcast
3:55 AM 62.1 °F 57.2 °F 84% 29.96 in 10.0 mi SW 12.7 mph - N/A   Scattered Clouds
4:55 AM 62.1 °F 57.9 °F 86% 29.96 in 10.0 mi SW 15.0 mph - N/A   Scattered Clouds
5:55 AM 61.9 °F 58.1 °F 87% 29.97 in 10.0 mi SW 15.0 mph - N/A   Partly Cloudy
6:46 AM 62.6 °F 59.0 °F 88% 29.99 in 10.0 mi SW 13.8 mph - N/A   Mostly Cloudy
6:55 AM 62.4 °F 58.6 °F 87% 29.99 in 10.0 mi SW 13.8 mph - N/A   Mostly Cloudy
7:25 AM 62.6 °F 59.0 °F 88% 30.01 in 10.0 mi West 9.2 mph - N/A   Mostly Cloudy
7:38 AM 62.6 °F 59.0 °F 88% 30.01 in 10.0 mi West 10.4 mph - N/A   Mostly Cloudy
7:55 AM 63.5 °F 59.5 °F 87% 30.02 in 10.0 mi West 10.4 mph - N/A   Mostly Cloudy
8:46 AM 59.0 °F 44.6 °F 59% 30.06 in 10.0 mi NW 23.0 mph 27.6 mph N/A   Overcast
8:55 AM 58.6 °F 43.9 °F 58% 30.06 in 10.0 mi NW 20.7 mph - N/A   Overcast
8:57 AM 59.0 °F 42.8 °F 55% 30.06 in 10.0 mi NW 21.9 mph 25.3 mph N/A   Mostly Cloudy
9:55 AM 60.6 °F 40.8 °F 48% 30.08 in 10.0 mi NW 12.7 mph - N/A   Clear
10:55 AM 60.6 °F 30.9 °F 33% 30.09 in 10.0 mi WNW 20.7 mph - N/A   Clear
11:55 AM 62.6 °F 31.1 °F 31% 30.05 in 10.0 mi WNW 17.3 mph 23.0 mph N/A   Clear
12:55 PM 66.4 °F 31.5 °F 27% 30.02 in 10.0 mi WNW 17.3 mph - N/A   Clear
1:55 PM 68.4 °F 27.3 °F 22% 29.99 in 10.0 mi WNW 18.4 mph - N/A   Clear
2:55 PM 71.6 °F 27.1 °F 19% 29.96 in 10.0 mi WNW 20.7 mph 29.9 mph N/A   Clear
3:55 PM 70.3 °F 28.4 °F 21% 29.96 in 10.0 mi WNW 24.2 mph - N/A   Clear
4:55 PM 67.8 °F 25.7 °F 21% 29.96 in 10.0 mi WNW 21.9 mph 31.1 mph N/A   Clear
5:55 PM 65.1 °F 28.4 °F 25% 29.97 in 10.0 mi WNW 21.9 mph - N/A   Clear
6:55 PM 61.5 °F 30.9 °F 32% 30.01 in 10.0 mi West 15.0 mph - N/A   Clear
7:55 PM 59.4 °F 29.8 °F 33% 30.04 in 10.0 mi WNW 16.1 mph - N/A   Clear
8:55 PM 56.1 °F 36.0 °F 47% 30.07 in 10.0 mi WNW 17.3 mph - N/A   Clear
9:55 PM 54.1 °F 37.0 °F 52% 30.10 in 10.0 mi NW 18.4 mph 25.3 mph N/A   Clear
10:55 PM 53.1 °F 35.6 °F 52% 30.13 in 10.0 mi NW 13.8 mph - N/A   Clear
11:55 PM 51.6 °F 36.0 °F 55% 30.14 in 10.0 mi NW 13.8 mph - N/A   Clear